map of PNH home
Great Circle Mapper logo
PNH - Airport
Location
City:  Phnom Penh, Cambodia
Name:Pochentong International Airport
ICAO / IATA:VDPP / PNH

Details
Type:Airport (Aerodrome, Airfield)
Use:Public/Civil, Military, International (customs port of entry)
Latitude:11°32'48"N (11.546556)
Longitude:104°50'39"E (104.844139)
Datum:WGS 1984
Elevation:40 ft (12 m)
Variation:0.46°W (WMM2015 magnetic declination)
-0.02° annual change
Runways:1
Longest:9843 × 144 ft (3000 × 44 m), paved

Time
Time Zone:UTC+7
Local Time:

Weather
METAR:VDPP 141800Z 16006KT 9000 NSC 27/24 Q1011
TAF:VDPP 141700Z 1418/1512 18009KT 9999 FEW017= TAF VDSR 141700Z 1418/1512 17007KT 9999 FEW017

Related Locations
Nearby:
Farthest:SPRM: 12437 mi / 20015 km
San Ramón [Capitán FAP Leonardo Alvariño Herr Airport], JUN, PE

Find:

   beyond  
but within

Other Information
Maps:
NOTAMs:
Links:
Sources:

  
flag of Cambodia   

Sectional Chart

Flight Planning
at skyvector.com

Satellite Image

Google Maps Satellite view

 

Copyright © 2004-2016 Karl L. Swartz. All rights reserved.
The Great Circle Mapper name and logo are trademarks of the Great Circle Mapper.
All other trademarks mentioned herein belong to their respective owners.
Please see credits for attibutions and further copyright information.

  Follow gcmap on Facebook Follow gcmap on Twitter Follow gcmap on Google+ GCmap on LinkedIn

hCard Microformat

Geo Microformat